Weather History for Port Heiden, AK

Change the Weather History Date:

Sunday, September 1, 2013

  Actual Average Record
Temperature  
Mean Temperature 62 °F -  
Max Temperature 73 °F 53 °F 73 °F (2013)
Min Temperature 51 °F 44 °F 28 °F (2007)
Degree Days  
Heating Degree Days 3    
Growing Degree Days 12 (Base 50)    
Moisture  
Dew Point 50 °F    
Average Humidity 66    
Maximum Humidity 82    
Minimum Humidity 42    
Precipitation  
Precipitation 0.00 in - - ()
Sea Level Pressure  
Sea Level Pressure 29.63 in    
Wind  
Wind Speed 12 mph (SE)    
Max Wind Speed 41 mph    
Max Gust Speed 52 mph    
Visibility 10 miles    
Events      
Averages and records for this station are not official NWS values.
T = Trace of Precipitation, MM = Missing Value Source: NWS Daily Summary

Daily Weather History Graph

Daily Weather History Graph

Search for Another Location

Airport:

Trip Planner

Search our weather history database for the weather conditions in past years. The results will help you decide how hot, cold, wet, or windy it might be!

Date:

Astronomy

Sep. 01, 2013 Rise Set
Actual Time 7:37 AM AKDT 9:29 PM AKDT
Civil Twilight 6:57 AM AKDT 10:09 PM AKDT
Nautical Twilight 6:05 AM AKDT 11:00 PM AKDT
Astronomical Twilight 5:05 AM AKDT 12:00 AM AKDT
Moon 3:42 AM AKDT (9/1) 7:35 PM AKDT (9/1)
Length of Visible Light 15h 12m
Length of Day
13h 51m
Waning Crescent, 13% of the Moon is Illuminated
Sep 1
Waning Crescent
Sep 5
New
Sep 12
First Quarter
Sep 19
Full
Sep 26
Last Quarter

Hourly Weather History & Observations

Time (AKDT) Temp. Dew Point Humidity Pressure Visibility Wind Dir Wind Speed Gust Speed Precip Events Conditions
12:16 AM 53.6 °F 48.2 °F 82% 29.87 in 10.0 mi Calm Calm - N/A   Overcast
12:36 AM 53.6 °F 48.2 °F 82% 29.87 in 9.0 mi South 3.5 mph - N/A   Overcast
12:56 AM 53.6 °F 48.2 °F 82% 29.87 in 9.0 mi SSE 3.5 mph - N/A   Overcast
1:16 AM 53.6 °F 48.2 °F 82% 29.86 in 9.0 mi SSE 3.5 mph - N/A   Overcast
1:36 AM 53.6 °F 48.2 °F 82% 29.86 in 10.0 mi Calm Calm - N/A   Overcast
1:56 AM 53.6 °F 48.2 °F 82% 29.85 in 10.0 mi Calm Calm - N/A   Overcast
2:16 AM 53.6 °F 48.2 °F 82% 29.84 in 10.0 mi NE 5.8 mph - N/A   Overcast
2:36 AM 53.6 °F 46.4 °F 77% 29.83 in 10.0 mi NNE 5.8 mph - N/A   Overcast
2:56 AM 53.6 °F 46.4 °F 77% 29.82 in 10.0 mi NNE 5.8 mph - N/A   Overcast
3:16 AM 53.6 °F 48.2 °F 82% 29.82 in 10.0 mi ENE 6.9 mph - N/A   Overcast
3:36 AM 53.6 °F 48.2 °F 82% 29.81 in 10.0 mi ENE 5.8 mph - N/A   Overcast
3:56 AM 53.6 °F 48.2 °F 82% 29.80 in 10.0 mi ENE 4.6 mph - N/A   Overcast
4:16 AM 53.6 °F 48.2 °F 82% 29.79 in 10.0 mi ENE 4.6 mph - N/A   Overcast
4:36 AM 55.4 °F 48.2 °F 77% 29.78 in 10.0 mi ENE 4.6 mph - N/A   Overcast
4:56 AM 55.4 °F 48.2 °F 77% 29.77 in 10.0 mi ENE 5.8 mph - N/A   Overcast
5:16 AM 55.4 °F 48.2 °F 77% 29.76 in 7.0 mi Calm Calm - N/A   Overcast
5:36 AM 55.4 °F 48.2 °F 77% 29.75 in 10.0 mi East 4.6 mph - N/A   Overcast
5:56 AM 55.4 °F 48.2 °F 77% 29.74 in 10.0 mi ENE 4.6 mph - N/A   Overcast
6:16 AM 55.4 °F 48.2 °F 77% 29.74 in 10.0 mi ENE 3.5 mph - N/A   Overcast
6:36 AM 55.4 °F 48.2 °F 77% 29.73 in 9.0 mi SE 3.5 mph - N/A   Overcast
6:56 AM 57.2 °F 48.2 °F 72% 29.72 in 10.0 mi SSE 6.9 mph - N/A   Overcast
7:16 AM 59.0 °F 50.0 °F 72% 29.71 in 10.0 mi South 11.5 mph - N/A   Overcast
7:36 AM 59.0 °F 50.0 °F 72% 29.70 in 10.0 mi South 12.7 mph - N/A   Overcast
7:56 AM 59.0 °F 50.0 °F 72% 29.70 in 10.0 mi South 11.5 mph - N/A   Mostly Cloudy
8:16 AM 59.0 °F 50.0 °F 72% 29.70 in 10.0 mi South 12.7 mph - N/A   Mostly Cloudy
8:36 AM 59.0 °F 50.0 °F 72% 29.70 in 10.0 mi South 13.8 mph - N/A   Scattered Clouds
8:56 AM 59.0 °F 51.8 °F 77% 29.69 in 10.0 mi SSE 15.0 mph - N/A   Mostly Cloudy
9:16 AM 60.8 °F 51.8 °F 72% 29.69 in 10.0 mi SSE 16.1 mph - N/A   Overcast
9:36 AM 62.6 °F 53.6 °F 72% 29.68 in 10.0 mi SSE 15.0 mph - N/A   Overcast
9:56 AM 64.4 °F 53.6 °F 68% 29.67 in 10.0 mi SSE 16.1 mph - N/A   Scattered Clouds
10:16 AM 66.2 °F 53.6 °F 64% 29.68 in 10.0 mi South 17.3 mph 20.7 mph N/A   Clear
10:36 AM 66.2 °F 53.6 °F 64% 29.67 in 10.0 mi SSE 18.4 mph - N/A   Clear
10:56 AM 66.2 °F 53.6 °F 64% 29.67 in 10.0 mi South 18.4 mph - N/A   Clear
11:16 AM 68.0 °F 53.6 °F 60% 29.67 in 10.0 mi SSE 19.6 mph 23.0 mph N/A   Clear
11:36 AM 66.2 °F 53.6 °F 64% 29.66 in 10.0 mi SSE 15.0 mph - N/A   Mostly Cloudy
11:56 AM 66.2 °F 53.6 °F 64% 29.66 in 10.0 mi SSE 17.3 mph - N/A   Overcast
12:16 PM 68.0 °F 53.6 °F 60% 29.65 in 10.0 mi SSE 17.3 mph - N/A   Mostly Cloudy
12:36 PM 69.8 °F 53.6 °F 56% 29.65 in 10.0 mi SSE 16.1 mph - N/A   Mostly Cloudy
12:56 PM 69.8 °F 55.4 °F 60% 29.64 in 10.0 mi SSE 16.1 mph - N/A   Mostly Cloudy
1:16 PM 69.8 °F 55.4 °F 60% 29.63 in 10.0 mi SSE 17.3 mph - N/A   Scattered Clouds
1:36 PM 71.6 °F 55.4 °F 57% 29.62 in 10.0 mi SSE 20.7 mph 24.2 mph N/A   Mostly Cloudy
1:56 PM 71.6 °F 55.4 °F 57% 29.60 in 10.0 mi SSE 19.6 mph - N/A   Scattered Clouds
2:16 PM 69.8 °F 55.4 °F 60% 29.60 in 10.0 mi SSE 17.3 mph - N/A   Clear
2:36 PM 69.8 °F 55.4 °F 60% 29.59 in 10.0 mi SSE 20.7 mph 27.6 mph N/A   Partly Cloudy
2:56 PM 73.4 °F 55.4 °F 53% 29.58 in 10.0 mi SSE 17.3 mph - N/A   Mostly Cloudy
3:16 PM 73.4 °F 55.4 °F 53% 29.57 in 10.0 mi SSE 21.9 mph - N/A   Overcast
3:36 PM 71.6 °F 55.4 °F 57% 29.56 in 10.0 mi SSE 25.3 mph 29.9 mph N/A   Mostly Cloudy
3:56 PM 69.8 °F 53.6 °F 56% 29.56 in 10.0 mi SSE 20.7 mph 25.3 mph N/A   Mostly Cloudy
4:16 PM 68.0 °F 51.8 °F 56% 29.55 in 10.0 mi SSE 20.7 mph 25.3 mph N/A   Partly Cloudy
4:36 PM 69.8 °F 50.0 °F 49% 29.54 in 10.0 mi SSE 24.2 mph 28.8 mph N/A   Clear
4:56 PM 69.8 °F 50.0 °F 49% 29.54 in 10.0 mi SSE 25.3 mph 29.9 mph N/A   Clear
5:16 PM 71.6 °F 48.2 °F 43% 29.53 in 10.0 mi SSE 23.0 mph 29.9 mph N/A   Clear
5:36 PM 69.8 °F 48.2 °F 46% 29.53 in 10.0 mi SSE 24.2 mph 31.1 mph N/A   Clear
5:56 PM 69.8 °F 48.2 °F 46% 29.52 in 10.0 mi SSE 26.5 mph 34.5 mph N/A   Clear
6:16 PM - - N/A% 29.51 in 10.0 mi SSE 26.5 mph 34.5 mph N/A   Clear
6:36 PM 66.2 °F 44.6 °F 46% 29.51 in 10.0 mi SE 21.9 mph 31.1 mph N/A   Clear
6:56 PM 64.4 °F 44.6 °F 49% 29.51 in 10.0 mi SE 21.9 mph 31.1 mph N/A   Clear
7:16 PM - - N/A% 29.49 in 10.0 mi SE 23.0 mph 28.8 mph N/A   Clear
7:36 PM 64.4 °F 41.0 °F 42% 29.49 in 10.0 mi SSE 21.9 mph 28.8 mph N/A   Clear
7:56 PM 62.6 °F 39.2 °F 42% 29.49 in 10.0 mi SSE 21.9 mph 26.5 mph N/A   Clear
8:16 PM 62.6 °F 41.0 °F 45% 29.47 in 10.0 mi SE 26.5 mph 31.1 mph N/A   Clear
8:36 PM 62.6 °F 44.6 °F 52% 29.45 in 10.0 mi SSE 29.9 mph 34.5 mph N/A   Partly Cloudy
8:56 PM - - N/A% 29.43 in 10.0 mi SSE 34.5 mph 42.6 mph N/A   Mostly Cloudy
9:16 PM - - N/A% 29.43 in 10.0 mi SE 31.1 mph 41.4 mph N/A   Partly Cloudy
9:36 PM - - N/A% 29.42 in 10.0 mi SE 31.1 mph 40.3 mph N/A   Clear
9:56 PM - - N/A% 29.40 in 10.0 mi SE 33.4 mph 40.3 mph N/A   Clear
10:16 PM - - N/A% 29.40 in 10.0 mi SE 31.1 mph 43.7 mph N/A   Partly Cloudy
10:36 PM - - N/A% 29.39 in 10.0 mi SE 35.7 mph 43.7 mph N/A   Scattered Clouds
10:56 PM - - N/A% 29.37 in 10.0 mi SE 39.1 mph 50.6 mph N/A   Partly Cloudy
11:16 PM - - N/A% 29.38 in 10.0 mi SSE 38.0 mph 51.8 mph N/A   Clear
11:36 PM - - N/A% 29.38 in 10.0 mi SE 38.0 mph 51.8 mph N/A   Clear
11:56 PM - - N/A% 29.38 in 10.0 mi SE 41.4 mph 48.3 mph N/A   Clear